{"data":{"norad_id":61920,"epoch":"2026-09-21T06:35:47.883264Z","epoch_age_seconds":118541,"freshness":"FRESH","line1":"1 61920U 24207J   26264.27485976  .00018386  00000+0  67569-3 0  9992","line2":"2 61920  43.0014 257.2323 0001165  37.8359 322.2575 15.27594862104633","mean_motion":15.27594862,"eccentricity":0.0001165,"inclination_deg":43.0014,"raan_deg":257.2323,"arg_perigee_deg":37.8359,"mean_anomaly_deg":322.2575,"bstar":0.00067569,"rev_number":10463,"period_min":94.265831590628,"perigee_km":482.20527123015,"apogee_km":483.80391722161,"semimajor_km":6861.1415942259,"source":"CELESTRAK","updated_at":"2026-09-22T09:00:49.450104Z"}}